TimeCST,TemperatureF,Dew PointF,Humidity,Sea Level PressureIn,VisibilityMPH,Wind Direction,Wind SpeedMPH,Gust SpeedMPH,PrecipitationIn,Events,Conditions,WindDirDegrees,DateUTC
12:53 AM,37.0,25.0,62,30.07,10.0,NNE,8.1,-,N/A,,Partly Cloudy,20,2013-02-23 06:53:00
1:53 AM,34.0,25.0,70,30.06,10.0,NNE,5.8,-,N/A,,Partly Cloudy,20,2013-02-23 07:53:00
2:53 AM,34.0,25.0,70,30.04,10.0,NNE,8.1,-,N/A,,Partly Cloudy,20,2013-02-23 08:53:00
3:53 AM,33.1,24.1,70,30.01,10.0,NNE,6.9,-,N/A,,Scattered Clouds,30,2013-02-23 09:53:00
4:53 AM,33.1,24.1,70,30.02,10.0,North,9.2,-,N/A,,Partly Cloudy,10,2013-02-23 10:53:00
5:53 AM,32.0,24.8,75,30.03,10.0,NNE,8.1,-,N/A,,Partly Cloudy,20,2013-02-23 11:53:00
6:53 AM,30.0,23.0,75,30.06,10.0,North,8.1,-,N/A,,Partly Cloudy,10,2013-02-23 12:53:00
7:53 AM,34.0,25.0,70,30.06,10.0,North,5.8,-,N/A,,Partly Cloudy,10,2013-02-23 13:53:00
8:53 AM,37.0,24.1,59,30.09,10.0,NNE,6.9,-,N/A,,Scattered Clouds,20,2013-02-23 14:53:00
9:53 AM,39.0,24.1,55,30.09,10.0,North,6.9,-,N/A,,Partly Cloudy,350,2013-02-23 15:53:00
10:53 AM,43.0,24.1,47,30.09,10.0,North,6.9,-,N/A,,Mostly Cloudy,10,2013-02-23 16:53:00
11:53 AM,46.0,24.1,42,30.08,10.0,North,11.5,-,N/A,,Scattered Clouds,360,2013-02-23 17:53:00
12:53 PM,48.0,25.0,41,30.04,10.0,North,8.1,-,N/A,,Partly Cloudy,360,2013-02-23 18:53:00
1:53 PM,50.0,26.1,39,30.00,10.0,NNE,6.9,-,N/A,,Clear,30,2013-02-23 19:53:00
2:53 PM,52.0,25.0,35,29.97,10.0,Variable,4.6,-,N/A,,Clear,0,2013-02-23 20:53:00
3:53 PM,53.1,26.1,35,29.96,10.0,East,4.6,-,N/A,,Clear,100,2013-02-23 21:53:00
4:53 PM,55.0,26.1,33,29.95,10.0,Variable,3.5,-,N/A,,Clear,0,2013-02-23 22:53:00
5:53 PM,51.1,27.0,39,29.94,10.0,East,4.6,-,N/A,,Clear,90,2013-02-23 23:53:00
6:53 PM,46.9,27.0,46,29.95,10.0,East,5.8,-,N/A,,Clear,100,2013-02-24 00:53:00
7:53 PM,44.1,27.0,51,29.96,10.0,ENE,3.5,-,N/A,,Clear,70,2013-02-24 01:53:00
8:53 PM,44.6,28.4,53,29.95,10.0,East,4.6,-,N/A,,Clear,90,2013-02-24 02:53:00
9:53 PM,44.1,28.0,53,29.94,10.0,East,6.9,-,N/A,,Clear,100,2013-02-24 03:53:00
10:53 PM,43.0,28.0,56,29.93,10.0,East,3.5,-,N/A,,Clear,100,2013-02-24 04:53:00
11:53 PM,43.0,28.0,56,29.92,10.0,Calm,Calm,-,N/A,,Clear,0,2013-02-24 05:53:00